Location: Archemont
(49.1579°N, 1.7598°E)
Time: 20:36:43
(UTC+00:00)

Courier 1B - All Passes

Search period start: 12 April 2024 00:00
Search period end: 22 April 2024 00:00
Orbit: 962 x 1209 km, 28.3° (Epoch: 11 April)

Date Brightness Start Highest point End Pass type
(mag) Time Alt. Az. Time Alt. Az. Time Alt. Az.
12 Apr - 06:07:44 10° S 06:07:58 10° S 06:08:12 10° S daylight
13 Apr - 07:05:51 10° SSW 07:07:02 10° S 07:08:13 10° S daylight
14 Apr - 06:12:01 10° SSW 06:13:37 11° S 06:15:11 10° SSE daylight
15 Apr - 05:18:34 10° SSW 05:20:11 11° S 05:21:48 10° SSE daylight
16 Apr - 04:25:28 10° S 04:26:45 11° S 04:28:00 10° SSE visible
16 Apr - 06:18:25 10° SSW 06:19:16 10° S 06:20:06 10° S daylight
17 Apr - 05:23:59 10° SSW 05:25:50 11° S 05:27:40 10° SSE daylight
18 Apr - 04:30:08 10° SSW 04:32:23 12° S 04:34:36 10° SSE daylight
19 Apr - 03:36:33 10° SSW 03:38:55 12° S 03:41:14 10° SSE visible
20 Apr - 02:43:14 10° S 02:45:25 11° S 02:47:34 10° SSE visible
20 Apr - 04:35:59 10° SSW 04:38:00 11° S 04:40:00 10° S daylight
21 Apr - 01:50:23 10° S 01:51:55 11° S 01:53:26 10° SSE visible
21 Apr - 03:41:51 10° SSW 03:44:32 12° S 03:47:10 10° SSE visible
